PROGRESS-MS 09

Last updated on Sun Jan 27 2019 00:02:08 GMT+0000 (Greenwich Mean Time)

1 43537U 18058A 19024.45977051 .00000253 00000-0 11397-4 0 9993 2 43537 51.6429 356.0588 0004630 307.4163 196.1396 15.53168420 30871
UTC large
Height (km)
Speed (km/s)
/
Latitude / Longitude
Inclination (degrees)
Orbital Period (minutes)
Azimuth
Elevation
Range (km)
Doppler Factor

Next 0 passes for location: London (51.5072 / 0.1276)

Sorry there are no passes over London.